Victoria, TX

1:20 AM CDT on October 23, 2017 (GMT -0500)
Victoria Regional

Weather History for KVCT - May, 2013

Change the Weather History Date:

Sunday, May 12, 2013

  Actual Average Record
Temperature  
Mean Temperature 71 °F 76 °F  
Max Temperature 82 °F 86 °F 94 °F (1964)
Min Temperature 60 °F 67 °F 51 °F (1931)
Degree Days  
Heating Degree Days 0 0  
Month to date heating degree days 9 0  
Since 1 July heating degree days 1024 1248  
Cooling Degree Days 6 11  
Month to date cooling degree days 66 119  
Year to date cooling degree days 348 408  
Growing Degree Days 23 (Base 50)    
Moisture  
Dew Point 56 °F    
Average Humidity 58    
Maximum Humidity 73    
Minimum Humidity 42    
Precipitation  
Precipitation 0.00 in 0.16 in 2.72 in (1968)
Month to date precipitation 0.32 1.86  
Year to date precipitation 7.52 12.05  
Snow  
Snow 0.00 in - - ()
Month to date snowfall 0.0  
Since 1 July snowfall 0.0  
Snow Depth 0.00 in    
Sea Level Pressure  
Sea Level Pressure 30.13 in    
Wind  
Wind Speed 9 mph (NE)    
Max Wind Speed 17 mph    
Max Gust Speed 22 mph    
T = Trace of Precipitation, MM = Missing Value Source: NWS Daily Summary

Daily Weather History Graph

Daily Weather History Graph

Search for Another Location

Airport or City:

Trip Planner

Search our weather history database for the weather conditions in past years. The results will help you decide how hot, cold, wet, or windy it might be!

Date:

Astronomy

May. 12, 2013 Rise Set
Actual Time 6:38 AM CDT 8:10 PM CDT
Civil Twilight 6:12 AM CDT 8:35 PM CDT
Nautical Twilight 5:41 AM CDT 9:06 PM CDT
Astronomical Twilight 5:09 AM CDT 9:38 PM CDT
Moon 8:37 AM CDT (5/12) 10:36 PM CDT (5/12)
Length of Visible Light 14h 23m
Length of Day
13h 32m
Waxing Crescent, 7% of the Moon is Illuminated
May 12
Waxing Crescent
May 17
First Quarter
May 24
Full
May 31
Last Quarter
Jun 8
New

Hourly Weather History & Observations

Time (CDT) Temp. Heat Index Dew Point Humidity Pressure Visibility Wind Dir Wind Speed Gust Speed Precip Events Conditions
12:51 AM 68.0 °F - 55.0 °F 63% 30.12 in - North 6.9 mph - N/A   Clear
1:51 AM 66.9 °F - 55.9 °F 68% 30.12 in - North 5.8 mph - N/A   Clear
2:51 AM 68.0 °F - 54.0 °F 61% 30.08 in - North 10.4 mph - N/A   Clear
3:51 AM 68.0 °F - 53.1 °F 59% 30.04 in - NE 11.5 mph - N/A   Partly Cloudy
4:51 AM 66.9 °F - 55.0 °F 66% 30.09 in - North 4.6 mph - N/A   Mostly Cloudy
5:51 AM 66.0 °F - 55.0 °F 68% 30.10 in - NNE 8.1 mph - N/A   Clear
6:51 AM 66.0 °F - 55.9 °F 70% 30.11 in - NE 9.2 mph - N/A   Mostly Cloudy
7:51 AM 66.9 °F - 55.9 °F 68% 30.14 in - NNE 11.5 mph - N/A   Overcast
8:51 AM 68.0 °F - 57.0 °F 68% 30.16 in - NNE 12.7 mph - N/A   Scattered Clouds
9:51 AM 70.0 °F - 59.0 °F 68% 30.17 in - NNE 9.2 mph - N/A   Clear
10:51 AM 75.9 °F - 61.0 °F 60% 30.18 in - NE 10.4 mph - N/A   Clear
11:51 AM 75.9 °F - 59.0 °F 56% 30.17 in - NE 15.0 mph - N/A   Clear
12:51 PM 73.9 °F - 59.0 °F 59% 30.16 in - ENE 12.7 mph - N/A   Clear
1:51 PM 77.0 °F - 57.9 °F 52% 30.14 in - NE 12.7 mph 21.9 mph N/A   Clear
2:51 PM 80.1 °F 80.7 °F 59.0 °F 48% 30.13 in - NE 10.4 mph 18.4 mph N/A   Clear
3:51 PM 80.1 °F 80.2 °F 55.9 °F 43% 30.12 in - ENE 9.2 mph - N/A   Clear
4:51 PM 81.0 °F 81.0 °F 57.0 °F 44% 30.12 in - NE 9.2 mph 19.6 mph N/A   Clear
5:51 PM 81.0 °F 80.8 °F 55.9 °F 42% 30.10 in - NE 11.5 mph - N/A   Clear
6:51 PM 79.0 °F - 55.0 °F 44% 30.09 in - ENE 12.7 mph - N/A   Clear
7:51 PM 75.0 °F - 55.0 °F 50% 30.11 in - East 4.6 mph - N/A   Clear
8:51 PM 72.0 °F - 55.9 °F 57% 30.14 in - East 4.6 mph - N/A   Clear
9:51 PM 66.9 °F - 55.9 °F 68% 30.16 in - SE 5.8 mph - N/A   Clear
10:51 PM 66.9 °F - 54.0 °F 63% 30.17 in - South 3.5 mph - N/A   Clear
11:51 PM 64.9 °F - 55.0 °F 70% 30.18 in - Calm Calm - N/A   Clear